Location: Newark
(44.6166°N, 5.7097°E)
Time: 10:52:10
(UTC+00:00)

Envisat - Visible Passes

Search period start: 11 December 2019 00:00
Search period end: 21 December 2019 00:00
Orbit: 764 x 766 km, 98.1° (Epoch: 11 December)

Date Brightness Start Highest point End Pass type
(mag) Time Alt. Az. Time Alt. Az. Time Alt. Az.
11 Dec 5.0 05:44:57 10° NNE 05:49:29 32° E 05:54:00 10° SSE visible
11 Dec 3.1 17:01:00 10° SE 17:05:53 50° ENE 17:10:48 10° N visible
11 Dec 5.4 18:41:21 10° SW 18:45:11 21° W 18:49:03 10° NW visible
12 Dec 6.0 05:09:28 10° NE 05:12:21 15° E 05:15:13 10° ESE visible
12 Dec 4.0 16:25:20 10° ESE 16:29:23 25° ENE 16:33:27 10° N visible
12 Dec 4.1 18:03:18 10° S 18:08:08 45° W 18:13:02 10° NNW visible
13 Dec 3.9 06:10:06 10° NNE 06:15:06 55° E 06:20:04 10° S visible
13 Dec 2.9 17:26:14 10° SSE 17:31:18 85° ENE 17:36:25 10° NNW visible
13 Dec 6.1 19:08:58 10° WSW 19:10:59 12° W 19:13:01 10° WNW visible
14 Dec 5.4 05:33:54 10° NE 05:38:07 26° E 05:42:18 10° SSE visible
14 Dec 3.4 16:49:57 10° SE 16:54:40 40° ENE 16:59:24 10° N visible
14 Dec 5.1 18:29:33 10° SSW 18:33:48 27° W 18:38:05 10° NW visible
15 Dec 6.2 04:59:08 10° ENE 05:00:55 12° E 05:02:43 10° ESE visible
15 Dec 3.6 17:51:50 10° S 17:56:49 57° W 18:01:50 10° NNW visible
16 Dec 4.3 05:58:55 10° NNE 06:03:47 43° E 06:08:36 10° S visible
16 Dec 2.9 17:15:01 10° SSE 17:20:02 68° ENE 17:25:06 10° N visible
16 Dec 5.8 18:56:34 10° SW 18:59:33 16° W 19:02:34 10° NW visible
17 Dec 5.7 05:22:57 10° NE 05:26:44 21° E 05:30:29 10° SE visible
17 Dec 3.6 16:38:59 10° SE 16:43:27 33° ENE 16:47:58 10° N visible
17 Dec 4.7 18:17:53 10° SSW 18:22:26 33° W 18:27:01 10° NNW visible
18 Dec 3.3 06:24:14 10° NNE 06:29:21 75° ESE 06:34:25 10° S visible
18 Dec 3.2 17:40:28 10° S 17:45:31 72° WSW 17:50:37 10° NNW visible
19 Dec 4.8 05:47:47 10° NNE 05:52:26 35° E 05:57:03 10° SSE visible
19 Dec 3.1 17:03:52 10° SSE 17:08:48 54° ENE 17:13:45 10° N visible
19 Dec 5.6 18:44:31 10° SW 18:48:09 20° W 18:51:49 10° NW visible
20 Dec 6.0 05:12:09 10° NE 05:15:20 16° E 05:18:30 10° SE visible
20 Dec 3.9 16:28:05 10° ESE 16:32:16 27° ENE 16:36:28 10° N visible
20 Dec 4.3 18:06:19 10° SSW 18:11:05 41° W 18:15:54 10° NNW visible
